TimeEST,TemperatureF,Dew PointF,Humidity,Sea Level PressureIn,VisibilityMPH,Wind Direction,Wind SpeedMPH,Gust SpeedMPH,PrecipitationIn,Events,Conditions,WindDirDegrees,DateUTC
12:53 AM,28.0,18.0,66,30.04,10.0,West,8.1,-,N/A,,Clear,260,2012-12-23 05:53:00
1:53 AM,30.0,16.0,56,30.06,10.0,West,8.1,-,N/A,,Clear,280,2012-12-23 06:53:00
2:53 AM,28.9,17.1,61,30.06,10.0,SSW,3.5,-,N/A,,Clear,210,2012-12-23 07:53:00
3:53 AM,26.1,17.1,69,30.06,10.0,Calm,Calm,-,N/A,,Clear,0,2012-12-23 08:53:00
4:53 AM,24.1,17.1,75,30.05,10.0,Calm,Calm,-,N/A,,Clear,0,2012-12-23 09:53:00
5:53 AM,26.1,17.1,69,30.04,10.0,WSW,3.5,-,N/A,,Clear,240,2012-12-23 10:53:00
6:53 AM,26.1,16.0,66,30.06,10.0,Calm,Calm,-,N/A,,Clear,0,2012-12-23 11:53:00
7:53 AM,23.0,15.1,72,30.05,10.0,Calm,Calm,-,N/A,,Clear,0,2012-12-23 12:53:00
8:53 AM,28.9,17.1,61,30.04,10.0,SSW,5.8,-,N/A,,Clear,200,2012-12-23 13:53:00
9:53 AM,35.1,18.0,50,30.03,10.0,South,8.1,-,N/A,,Clear,190,2012-12-23 14:53:00
10:53 AM,39.9,16.0,38,30.01,10.0,South,8.1,-,N/A,,Clear,190,2012-12-23 15:53:00
11:53 AM,43.0,15.1,32,29.96,10.0,SSW,8.1,17.3,N/A,,Clear,210,2012-12-23 16:53:00
1:53 PM,46.9,17.1,30,29.90,10.0,South,8.1,-,N/A,,Clear,190,2012-12-23 18:53:00
2:53 PM,48.0,18.0,30,29.88,10.0,SSW,6.9,16.1,N/A,,Clear,200,2012-12-23 19:53:00
3:53 PM,46.9,18.0,32,29.89,10.0,SSW,8.1,-,N/A,,Clear,200,2012-12-23 20:53:00
4:53 PM,45.0,18.0,34,29.90,10.0,South,4.6,-,N/A,,Clear,190,2012-12-23 21:53:00
5:53 PM,43.0,19.0,38,29.91,10.0,SSW,5.8,-,N/A,,Clear,200,2012-12-23 22:53:00
6:53 PM,43.0,19.0,38,29.94,10.0,West,6.9,-,N/A,,Clear,280,2012-12-23 23:53:00
7:53 PM,39.9,19.9,45,29.94,10.0,Calm,Calm,-,N/A,,Clear,0,2012-12-24 00:53:00
8:53 PM,43.0,21.9,43,29.96,10.0,WNW,10.4,-,N/A,,Clear,290,2012-12-24 01:53:00
9:53 PM,42.1,23.0,47,29.97,10.0,WNW,9.2,-,N/A,,Clear,300,2012-12-24 02:53:00
10:53 PM,37.0,21.9,54,29.99,10.0,Calm,Calm,-,N/A,,Clear,0,2012-12-24 03:53:00
11:53 PM,35.1,21.9,59,29.99,10.0,Calm,Calm,-,N/A,,Clear,0,2012-12-24 04:53:00